STARLINK-36645, 67707

Orbit data source: Space-Track

STARLINK-36645, 67707 is a payload satellite owned by SpaceX/Seattle (US) in SSO that was launched on Sat, 07 Feb 2026 UTC via an FALCON 9 launch vehicle from the Air Force Western Test Range (AFWTR). Payload-class satellites include a variety of spacecraft equipped with specific instruments for various scientific and technological missions. These include communications satellites like Starlink; space stations such as the ISS; scientific satellites like the Hubble; Earth observation satellites from companies like Planet Labs, Umbra, and HawkEye 360; GPS; miniature CubeSats for education and research; and military/defense satellites.

Loading next visibility...
Identifier
67707, 2026-025Q
Orbit
SSO
Country
Flag of USUS
Related business
Manufacturer
SpaceX/Seattle
Mission
Operational spacecraft
Bus & Motor
STARLINK V2MO, Unknown motor
Mass
575 kg wet, ~530 kg dry
Launch date (UTC)
2026-02-07 (2 months ago)
Launch vehicle
FALCON 9
Launch site
Air Force Western Test Range (AFWTR)
Object type
Payload
Rocket body
Debris
Shape & HBR
Unknown shape, 17.7 m
Radar Cross Section
RCS unknown

Expand to show TLE details & history
Last TLE update: 8 hours ago

TLE from 8 hours ago
0 STARLINK-36645
1 67707U 26025Q   26104.03699905  .00008950  00000-0  27913-3 0  9993
2 67707  97.2843 216.2824 0000405  80.5906 279.5383 15.33457009 11437
Epoch: 2026-04-14T00:53Z
TLE epoch observation values (Epoch: 2026-04-14T00:53:16.717Z)
Latitude
-0°
Longitude
0.74374°
Altitude
468.574 km
Speed
7.632 km/s
True Right ascension
14h 25m 07s
True Declination
0° 00' 00"
Sunlit
Object was in full shadow at epoch
Visualization orbit readout
Latitude
Unknown
Longitude
Unknown
Altitude
Unknown
Speed
Unknown
Apparent Right ascension
Unknown
Apparent Declination
Unknown
Sunlit
N/A
Visualization observer readout
Local Sidereal Time
15:38:05
Azimuth
Unknown
Elevation
Unknown
Doppler factor
Unknown
Orbital elements
Apogee altitude
462.727 km
Perigee altitude
462.173 km
Semi-major axis
6,840.587 km
Eccentricity
0.00004
Inclination
97.2843°
RAAN
216.2824°
Arg. of periapsis
80.5906°
True anomaly
279.53372°
Mean anomaly
279.5383°
Eccentric anomaly
279.53601°
Mean motion
3.83622 °/min
Orbital period
93.84 mins
BSTAR
0.00027913
Loading maneuver chart data...
Computing Atmospheric mass density...
Loading historical data...
Loading historical data...
Loading historical data...
Loading historical data...
Loading historical data...
Loading historical data...
Loading historical data...

Documentation

Showing up to 5 results
|